#timestamp,LO_Frequency,Hit 
1500987615.9,286046994.5,N
1500987635.7,286046992.5,N
1500987655.5,286046990.7,N
1500987675.4,286046992.8,N
1500987695.2,286046990.5,N
1500987715.0,286046993.0,N
1500987715.9,286046993.0,N
1500987735.8,286046991.9,N
1500987755.6,286046992.8,N
1500987775.4,286046992.8,N
1500987795.2,286046989.5,N
1500987815.1,286046989.1,N
1500987816.0,286046989.1,N
1500987835.8,286046988.7,N
1500987855.6,286046988.5,N
1500987875.5,286046989.3,N
1500987895.3,286046987.6,N
1500987915.1,286046989.7,N
1500987935.9,286046988.9,N
1500987955.7,286046989.3,N
1500987975.5,286046989.9,N
1500987995.4,286046987.5,N
1500988015.2,286046985.3,Y
1500988035.0,286046996.2,N
1500988035.9,286046996.2,N
1500988055.8,286046996.1,N
1500988075.6,286046996.4,N
1500988095.4,286046992.4,N
1500988115.3,286046992.3,N
1500988135.1,286046992.1,N
1500988136.0,286046992.1,N
1500988155.8,286046992.9,N
1500988175.6,286046992.9,N
1500988195.5,286046992.4,N
1500988215.3,286046990.3,N
1500988235.1,286046991.2,N
1500988255.9,286046988.9,N
1500988275.7,286046989.4,N
1500988295.5,286046987.3,N
1500988315.4,286046988.2,N
1500988335.2,286046988.0,N
1500988355.0,286046988.1,N
1500988355.9,286046988.1,N
1500988375.8,286046988.1,N
1500988395.6,286046985.8,Y
1500988415.4,286046994.6,N
1500988435.3,286046991.9,N
1500988455.1,286046994.6,N
1500988456.0,286046994.6,N
1500988475.8,286046993.3,N
1500988495.7,286046993.6,N
1500988515.5,286046994.5,N
1500988535.3,286046994.6,N
1500988555.1,286046994.0,N
1500988575.9,286046994.3,N
1500988595.7,286046990.2,N
1500988615.5,286046992.7,N
1500988635.4,286046993.2,N
1500988655.2,286046991.0,N
1500988675.0,286046991.3,N
1500988675.9,286046991.3,N
1500988695.8,286046991.3,N
1500988715.6,286046989.1,Y
1500988735.4,286046998.8,N
1500988755.3,286046998.9,N
1500988775.1,286046997.4,N
1500988776.0,286046997.4,N
1500988795.8,286046996.9,N
1500988815.7,286046997.1,N
1500988835.5,286046997.7,N
1500988855.3,286046997.3,N
1500988875.1,286046997.6,N
1500988895.9,286046995.4,N
1500988915.7,286046993.5,N
1500988935.5,286046996.3,N
1500988955.4,286046996.3,N
1500988975.2,286046993.8,N
1500988995.0,286046993.8,N
1500988995.9,286046993.8,N
1500989015.8,286046994.2,N
1500989035.6,286046996.0,N
1500989055.4,286046991.8,N
1500989075.2,286046993.7,N
1500989095.1,286046996.3,N
1500989096.0,286046996.3,N
1500989115.8,286046993.3,N
1500989135.6,286046994.3,N
1500989155.5,286046994.3,N
1500989175.3,286046996.2,N
1500989195.1,286046995.2,N
1500989215.9,286046995.3,N
1500989235.7,286046996.1,N
1500989255.5,286046994.9,N
1500989275.4,286046995.1,N
1500989295.2,286046996.4,N
1500989315.0,286046994.1,N
1500989315.9,286046994.1,N
1500989335.7,286046994.8,N
1500989355.6,286046991.9,N
1500989375.4,286046992.9,N
1500989395.2,286046992.9,N
1500989415.1,286046993.1,N
1500989416.0,286046993.1,N
1500989435.8,286046991.0,N
1500989455.6,286046990.6,Y
1500989475.5,286047000.6,N
1500989495.3,286047002.1,N
1500989515.1,286047002.1,N
1500989535.9,286047002.0,N
1500989555.7,286047004.0,N
1500989575.5,286047003.7,N
1500989595.4,286047004.1,N
1500989615.2,286047001.6,N
1500989635.0,286047001.9,N
1500989635.9,286047001.9,N
1500989655.8,286047000.4,N
1500989675.6,286047001.0,N
1500989695.4,286047000.8,N
1500989715.2,286047000.4,N
1500989735.1,286047000.8,N
1500989736.0,286047000.8,N
1500989755.8,286046996.5,N
1500989775.6,286046999.4,N
1500989795.5,286046999.6,N
1500989815.3,286046997.2,N
1500989835.1,286046994.9,N
1500989855.9,286046995.0,N
1500989875.7,286046996.0,N
1500989895.5,286046996.2,N
1500989915.4,286046996.4,N
1500989935.2,286046992.2,N
1500989955.0,286046994.3,N
1500989955.9,286046994.3,N
1500989975.7,286046995.5,N
1500989995.6,286046994.9,N
1500990015.4,286046996.1,N
1500990035.2,286046996.4,N
1500990055.1,286046994.8,N
1500990056.0,286046994.8,N
1500990075.8,286046992.5,N
1500990095.6,286046991.0,N
1500990115.5,286046987.1,Y
1500990135.3,286046995.6,N
1500990155.1,286046995.7,N
1500990175.9,286046995.9,N
1500990195.7,286046994.1,N
1500990215.5,286046994.6,N
1500990235.4,286046994.6,N
1500990255.2,286046991.8,N
1500990275.0,286046992.4,N
1500990275.9,286046992.4,N
1500990295.7,286046993.0,N
1500990315.6,286046990.6,N
1500990335.4,286046992.8,N
1500990355.2,286046990.7,N
1500990375.1,286046993.2,N
1500990376.0,286046993.2,N
1500990395.8,286046988.9,N
1500990415.6,286046991.1,N
1500990435.5,286046988.9,N
1500990455.3,286046991.6,N
1500990475.1,286046990.4,N
1500990495.9,286046990.2,N
1500990515.7,286046993.0,N
1500990535.5,286046992.7,N
1500990555.3,286046992.3,N
1500990575.2,286046991.9,N
1500990595.0,286046993.2,N
1500990595.9,286046993.2,N
1500990615.7,286046991.4,N
1500990635.6,286046990.4,N
1500990655.4,286046988.5,N
1500990675.2,286046991.0,N
1500990695.1,286046988.5,N
1500990696.0,286046988.5,N
1500990715.8,286046989.1,N
1500990735.6,286046988.9,N
1500990755.5,286046990.0,N
1500990775.3,286046988.3,Y
1500990795.1,286046993.6,N
1500990815.9,286046992.5,N
1500990835.7,286046992.9,N
1500990855.5,286046992.7,N
1500990875.3,286046991.5,N
1500990895.2,286046989.0,N
1500990915.0,286046987.0,Y
1500990915.9,286046987.0,Y
1500990935.8,286047001.7,N
1500990955.6,286047001.5,N
1500990975.4,286047002.4,N
1500990995.3,286047001.9,N
1500991015.1,286047001.8,N
1500991016.0,286047001.8,N
1500991035.8,286047003.5,N
1500991055.6,286047002.5,N
1500991075.5,286047005.3,N
1500991095.3,286047003.6,N
1500991115.1,286047005.9,N
1500991135.9,286047005.4,N
1500991155.7,286047002.9,N
1500991175.5,286047003.4,N
1500991195.4,286047005.6,N
